Find Starlink 5334

NORAD ID: 56509 Int'l Des: 2023-065 Owner: SPXS Country: US Constellation: starlink operational
LEOCIRCULAR

Live Position

Loading 3D Globe...

About Starlink 5334

Description loading...

Upcoming Passes

Passes for default location (London). Set your location on the main map for personalized predictions.

Altitude History

Loading altitude history...

Two-Line Element Set

1 56509U 23065G 26139.77221897 -.00000582 00000-0 -11645-4 0 9993
2 56509 43.0027 170.8060 0001171 271.5467 88.5250 15.27568238167477
Epoch: May 19, 2026 • Age: 13 hours

Current Status

Altitude 482.4 km
Velocity 7.63 km/s
Sub-Earth Point 8.02°N, 16.25°W
Launch Date May 14, 2023
Age 3 years
Type internet

Technical Details

Classification Payload
Mass 305.00 kg
Dry Mass 290.00 kg
Total Mass 305.00 kg
Length 0.20 m
Diameter 2.80 m
Span 9.00 m
Shape Box + pan
Manufacturer SPXS
Bus Type Starlink
Phase Status In Orbit
Owner/State SPXS/US

Most Searched